******************************************************************************* JPL/HORIZONS 541132 Leleakuhonua (2015 TG387) 2025-Dec-12 21:13:20 Rec #: 541132 (+COV) Soln.date: 2025-Jul-02_03:47:19 # obs: 35 (2005-2018) IAU76/J2000 helio. ecliptic osc. elements (au, days, deg., period=Julian yrs): EPOCH= 2457944.5 ! 2017-Jul-10.00 (TDB) Residual RMS= .07691 EC= .9390574940805684 QR= 64.72926625425579 TP= 2480393.5636051819 OM= 300.9623405298694 W= 118.4456730982617 IN= 11.66948508856894 A= 1062.136603634751 MA= 359.3608073969577 ADIST= 2059.543941015245 PER= 34616.15016 N= 2.8473E-5 ANGMOM= .192720151 DAN= 227.09073 DDN= 86.72289000000001 L= 59.9120469 B= 10.2443223 MOID= 63.75880051 TP= 2078-Dec-26.0636051819 Asteroid physical parameters (km, seconds, rotational period in hours): GM= n.a. RAD= n.a. ROTPER= n.a. H= 5.57 G= .150 B-V= n.a. ALBEDO= n.a. STYP= n.a. ASTEROID comments: 1: soln ref.= JPL#6, OCC=3 2: source=ORB ******************************************************************************* ******************************************************************************* Ephemeris / WWW_USER Fri Dec 12 21:13:20 2025 Pasadena, USA / Horizons ******************************************************************************* Target body name: 541132 Leleakuhonua (2015 TG387) {source: JPL#6} Center body name: Solar System Barycenter (0) {source: DE441} Center-site name: BODY CENTER ******************************************************************************* Start time : A.D. 2025-May-05 00:00:00.0000 TDB Stop time : A.D. 2025-May-06 00:00:00.0000 TDB Step-size : 1 calendar years ******************************************************************************* Center geodetic : 0.0, 0.0, 0.0 {E-lon(deg),Lat(deg),Alt(km)} Center cylindric: 0.0, 0.0, 0.0 {E-lon(deg),Dxy(km),Dz(km)} Center radii : (undefined) Keplerian GM : 2.9630927493968080E-04 au^3/d^2 Small perturbers: Yes {source: SB441-N16} Output units : AU-D, deg, Julian Day Number (Tp) Calendar mode : Mixed Julian/Gregorian Output type : GEOMETRIC osculating elements Output format : 10 Reference frame : Ecliptic of J2000.0 ******************************************************************************* Initial IAU76/J2000 heliocentric ecliptic osculating elements (au, days, deg.): EPOCH= 2457944.5 ! 2017-Jul-10.00 (TDB) Residual RMS= .07691 EC= .9390574940805684 QR= 64.72926625425579 TP= 2480393.5636051819 OM= 300.9623405298694 W= 118.4456730982617 IN= 11.66948508856894 Equivalent ICRF heliocentric cartesian coordinates (au, au/d): X= 7.711425533451269E+01 Y= 3.495565250127534E+00 Z= 1.758255804604752E+01 VX=-1.452515666356505E-03 VY= 2.076243529373574E-03 VZ= 8.809776797346989E-04 Asteroid physical parameters (km, seconds, rotational period in hours): GM= n.a. RAD= n.a. ROTPER= n.a. H= 5.57 G= .150 B-V= n.a. ALBEDO= n.a. STYP= n.a. ******************************************************************************* JDTDB EC QR IN OM W Tp N MA TA A AD PR ******************************************************************************* $$SOE 2460800.500000000 = A.D. 2025-May-05 00:00:00.0000 TDB EC= 9.457165838903365E-01 QR= 6.477717923815693E+01 IN= 1.167089949749121E+01 OM= 3.009892581706072E+02 W = 1.182361188506448E+02 Tp= 2480272.020925262012 N = 2.392560686102832E-05 MA= 3.595341320453559E+02 TA= 3.140013671224400E+02 A = 1.193314346821749E+03 AD= 2.321851514405341E+03 PR= 1.504664028340250E+07 $$EOE ******************************************************************************* TIME Barycentric Dynamical Time ("TDB" or T_eph) output was requested. This continuous coordinate time is equivalent to the relativistic proper time of a clock at rest in a reference frame co-moving with the solar system barycenter but outside the system's gravity well. It is the independent variable in the solar system relativistic equations of motion. TDB runs at a uniform rate of one SI second per second and is independent of irregularities in Earth's rotation. CALENDAR SYSTEM Mixed calendar mode was active such that calendar dates after AD 1582-Oct-15 (if any) are in the modern Gregorian system. Dates prior to 1582-Oct-5 (if any) are in the Julian calendar system, which is automatically extended for dates prior to its adoption on 45-Jan-1 BC. The Julian calendar is useful for matching historical dates. The Gregorian calendar more accurately corresponds to the Earth's orbital motion and seasons. A "Gregorian-only" calendar mode is available if such physical events are the primary interest. REFERENCE FRAME AND COORDINATES Ecliptic at the standard reference epoch Reference epoch: J2000.0 X-Y plane: adopted Earth orbital plane at the reference epoch Note: IAU76 obliquity of 84381.448 arcseconds wrt ICRF X-Y plane X-axis : ICRF Z-axis : perpendicular to the X-Y plane in the directional (+ or -) sense of Earth's north pole at the reference epoch. Symbol meaning [1 au= 149597870.700 km, 1 day= 86400.0 s]: JDTDB Julian Day Number, Barycentric Dynamical Time EC Eccentricity, e QR Periapsis distance, q (au) IN Inclination w.r.t X-Y plane, i (degrees) OM Longitude of Ascending Node, OMEGA, (degrees) W Argument of Perifocus, w (degrees) Tp Time of periapsis (Julian Day Number) N Mean motion, n (degrees/day) MA Mean anomaly, M (degrees) TA True anomaly, nu (degrees) A Semi-major axis, a (au) AD Apoapsis distance (au) PR Sidereal orbit period (day) ABERRATIONS AND CORRECTIONS Geometric osculating elements have NO corrections or aberrations applied. Computations by ... Solar System Dynamics Group, Horizons On-Line Ephemeris System 4800 Oak Grove Drive, Jet Propulsion Laboratory Pasadena, CA 91109 USA General site: https://ssd.jpl.nasa.gov/ Mailing list: https://ssd.jpl.nasa.gov/email_list.html System news : https://ssd.jpl.nasa.gov/horizons/news.html User Guide : https://ssd.jpl.nasa.gov/horizons/manual.html Connect : browser https://ssd.jpl.nasa.gov/horizons/app.html#/x API https://ssd-api.jpl.nasa.gov/doc/horizons.html command-line telnet ssd.jpl.nasa.gov 6775 e-mail/batch https://ssd.jpl.nasa.gov/ftp/ssd/horizons_batch.txt scripts https://ssd.jpl.nasa.gov/ftp/ssd/SCRIPTS Author : Jon.D.Giorgini@jpl.nasa.gov ******************************************************************************* !$$SOF CENTER = '@0' COMMAND = '541132' OUT_UNITS = 'AU-D' START_TIME = 'JD2460800.5' STEP_SIZE = '1y' STOP_TIME = 'JD2460801.5' TABLE_TYPE = 'ELEMENTS'